Weather History for CWZG - October, 2013

Change the Weather History Date:

Monday, October 7, 2013

  Actual Average Record
Temperature  
Mean Temperature 45 °F -  
Max Temperature 53 °F - - ()
Min Temperature 37 °F - - ()
Degree Days  
Heating Degree Days 20    
Moisture  
Dew Point 31 °F    
Average Humidity 63    
Maximum Humidity 89    
Minimum Humidity 34    
Precipitation  
Precipitation 0.00 in - - ()
Sea Level Pressure  
Sea Level Pressure 29.69 in    
Wind  
Wind Speed 8 mph ()    
Max Wind Speed 16 mph    
Max Gust Speed 29 mph    
T = Trace of Precipitation, MM = Missing Value Source: Averaged Metar Reports

Daily Weather History Graph

Daily Weather History Graph

Search for Another Location

Airport or City:

Trip Planner

Search our weather history database for the weather conditions in past years. The results will help you decide how hot, cold, wet, or windy it might be!

Date:

Astronomy

Oct. 07, 2013 Rise Set
Actual Time 7:53 AM MDT 7:05 PM MDT
Civil Twilight 7:19 AM MDT 7:38 PM MDT
Nautical Twilight 6:41 AM MDT 8:17 PM MDT
Astronomical Twilight 6:02 AM MDT 8:55 PM MDT
Moon 11:09 AM MDT (10/7) 8:30 PM MDT (10/7)
Length of Visible Light 12h 18m
Length of Day
11h 12m
Waxing Crescent, 9% of the Moon is Illuminated
Oct 7
Waxing Crescent
Oct 11
First Quarter
Oct 18
Full
Oct 26
Last Quarter
Nov 3
New

Hourly Weather History & Observations

Time (MDT) Temp. Windchill Dew Point Humidity Pressure Visibility Wind Dir Wind Speed Gust Speed Precip Events Conditions
12:00 AM 40.5 °F 38.4 °F 35.4 °F 82% 29.87 in - WSW 3.5 mph - N/A   Unknown
1:00 AM 40.8 °F 35.6 °F 34.2 °F 77% 29.83 in - SW 8.1 mph - N/A   Unknown
2:00 AM 38.8 °F 33.2 °F 33.3 °F 80% 29.81 in - SW 8.1 mph - N/A   Unknown
3:00 AM 37.2 °F 30.6 °F 31.3 °F 79% 29.78 in - SW 9.2 mph - N/A   Unknown
4:00 AM 39.4 °F 32.7 °F 32.0 °F 75% 29.73 in - WSW 10.4 mph 18.4 mph N/A   Unknown
5:00 AM 38.8 °F 32.1 °F 30.9 °F 73% 29.70 in - WSW 10.4 mph 20.7 mph N/A   Unknown
6:00 AM 40.5 °F 34.1 °F 28.8 °F 63% 29.69 in - WSW 10.4 mph - N/A   Unknown
7:00 AM 42.8 °F 37.5 °F 26.8 °F 53% 29.68 in - WSW 9.2 mph - N/A   Unknown
8:00 AM 46.4 °F 41.9 °F 25.7 °F 44% 29.67 in - WSW 9.2 mph 21.9 mph N/A   Unknown
9:00 AM 49.5 °F - 24.4 °F 38% 29.68 in - WSW 11.5 mph 24.2 mph N/A   Unknown
10:00 AM 50.7 °F - 26.1 °F 38% 29.67 in - WSW 13.8 mph 25.3 mph N/A   Unknown
11:00 AM 50.2 °F - 27.5 °F 42% 29.67 in - WSW 13.8 mph 26.5 mph N/A   Unknown
12:00 PM 52.0 °F - 25.5 °F 36% 29.64 in - WSW 16.1 mph 28.8 mph N/A   Unknown
1:00 PM 51.4 °F - 26.2 °F 38% 29.65 in - SW 12.7 mph 27.6 mph N/A   Unknown
2:00 PM 53.2 °F - 25.5 °F 34% 29.64 in - SW 12.7 mph 25.3 mph N/A   Unknown
3:00 PM 52.3 °F - 27.5 °F 38% 29.64 in - WSW 8.1 mph 18.4 mph N/A   Unknown
4:00 PM 49.5 °F - 28.8 °F 45% 29.64 in - West 6.9 mph - N/A   Unknown
5:00 PM 45.0 °F 40.6 °F 33.6 °F 64% 29.67 in - SW 8.1 mph - N/A   Unknown
6:00 PM 41.4 °F 37.6 °F 37.2 °F 85% 29.69 in - WSW 5.8 mph - N/A   Unknown
7:00 PM 39.7 °F 36.5 °F 36.5 °F 88% 29.67 in - WSW 4.6 mph - N/A   Unknown
8:00 PM 39.0 °F 34.8 °F 35.8 °F 88% 29.65 in - SW 5.8 mph - N/A   Unknown
9:00 PM 38.5 °F 35.0 °F 35.6 °F 89% 29.64 in - WSW 4.6 mph - N/A   Unknown
10:00 PM 37.9 °F 32.1 °F 34.5 °F 87% 29.64 in - SW 8.1 mph - N/A   Unknown
11:00 PM 39.0 °F 34.8 °F 31.3 °F 74% 29.63 in - SW 5.8 mph - N/A   Unknown